Hourly Weather Mendoza

Today, 14 August, Friday

Time Temperature Precipitation Wind Pressure Humidity
00:00 +10°C° 0 mm 1 mps 691 mmHg 22%
01:00 +10°C° 0 mm 1 mps 691 mmHg 22%
02:00 +8°C° 0 mm 2 mps 691 mmHg 22%
03:00 +8°C° 0 mm 2 mps 691 mmHg 22%
04:00 +8°C° 0 mm 2 mps 692 mmHg 23%
05:00 +8°C° 0 mm 3 mps 692 mmHg 23%
06:00 +8°C° 0 mm 3 mps 693 mmHg 23%
07:00 +8°C° 0 mm 3 mps 693 mmHg 23%
08:00 +11°C° 0 mm 4 mps 694 mmHg 21%
09:00 +13°C° 0 mm 5 mps 695 mmHg 19%
10:00 +15°C° 0 mm 6 mps 695 mmHg 16%
11:00 +15°C° 0 mm 6 mps 695 mmHg 18%
12:00 +15°C° 0 mm 7 mps 695 mmHg 19%
13:00 +15°C° 0 mm 7 mps 695 mmHg 21%
14:00 +15°C° 0 mm 6 mps 695 mmHg 23%
15:00 +14°C° 0 mm 4 mps 695 mmHg 25%
16:00 +14°C° 0 mm 3 mps 695 mmHg 27%
17:00 +13°C° 0 mm 3 mps 696 mmHg 28%
18:00 +13°C° 0 mm 2 mps 697 mmHg 30%
19:00 +10°C° 0 mm 2 mps 697 mmHg 31%
20:00 +10°C° 0 mm 2 mps 697 mmHg 30%
21:00 +10°C° 0 mm 1 mps 697 mmHg 30%
22:00 +9°C° 0 mm 1 mps 697 mmHg 29%
23:00 +8°C° 0 mm 1 mps 696 mmHg 28%

Tomorrow, 15 August, Saturday

Time Temperature Precipitation Wind Pressure Humidity
00:00 +8°C° 0 mm 1 mps 696 mmHg 27%
01:00 +7°C° 0 mm 1 mps 696 mmHg 27%
02:00 +7°C° 0 mm 1 mps 695 mmHg 26%
03:00 +6°C° 0 mm 1 mps 695 mmHg 25%
04:00 +6°C° 0 mm 1 mps 695 mmHg 25%
05:00 +6°C° 0 mm 1 mps 695 mmHg 24%
06:00 +7°C° 0 mm 1 mps 695 mmHg 23%
07:00 +8°C° 0 mm 1 mps 695 mmHg 23%
08:00 +10°C° 0 mm 1 mps 696 mmHg 20%
09:00 +12°C° 0 mm 2 mps 696 mmHg 18%
10:00 +14°C° 0 mm 2 mps 696 mmHg 16%
11:00 +15°C° 0 mm 2 mps 696 mmHg 17%
12:00 +15°C° 0 mm 2 mps 696 mmHg 17%
13:00 +16°C° 0 mm 1 mps 696 mmHg 17%
14:00 +16°C° 0 mm 1 mps 696 mmHg 17%
15:00 +16°C° 0 mm 1 mps 697 mmHg 17%
16:00 +16°C° 0 mm 1 mps 697 mmHg 16%
17:00 +15°C° 0 mm 1 mps 697 mmHg 19%
18:00 +14°C° 0 mm 1 mps 697 mmHg 21%
19:00 +12°C° 0 mm 1 mps 698 mmHg 24%
20:00 +11°C° 0 mm 1 mps 698 mmHg 24%
21:00 +10°C° 0 mm 2 mps 698 mmHg 25%
22:00 +9°C° 0 mm 2 mps 698 mmHg 26%
23:00 +8°C° 0 mm 2 mps 698 mmHg 26%

Day after tomorrow, 16 August, Sunday

Time Temperature Precipitation Wind Pressure Humidity
00:00 +8°C° 0 mm 2 mps 698 mmHg 26%
01:00 +8°C° 0 mm 1 mps 697 mmHg 26%
02:00 +8°C° 0 mm 1 mps 697 mmHg 26%
03:00 +7°C° 0 mm 1 mps 696 mmHg 26%
04:00 +7°C° 0 mm 1 mps 696 mmHg 26%
05:00 +7°C° 0 mm 1 mps 696 mmHg 25%
06:00 +8°C° 0 mm 1 mps 696 mmHg 25%
07:00 +8°C° 0 mm 1 mps 696 mmHg 24%
08:00 +10°C° 0 mm 1 mps 696 mmHg 22%
09:00 +12°C° 0 mm 1 mps 696 mmHg 19%
10:00 +14°C° 0 mm 1 mps 697 mmHg 16%
11:00 +15°C° 0 mm 1 mps 696 mmHg 16%
12:00 +16°C° 0 mm 1 mps 696 mmHg 15%
13:00 +18°C° 0 mm 1 mps 696 mmHg 14%
14:00 +18°C° 0 mm 1 mps 696 mmHg 14%
15:00 +18°C° 0 mm 1 mps 695 mmHg 14%
16:00 +18°C° 0 mm 1 mps 695 mmHg 13%
17:00 +16°C° 0 mm 1 mps 696 mmHg 16%
18:00 +14°C° 0 mm 1 mps 696 mmHg 19%
19:00 +11°C° 0 mm 0 mps 696 mmHg 22%
20:00 +11°C° 0 mm 0 mps 696 mmHg 22%
21:00 +11°C° 0 mm 0 mps 696 mmHg 22%
22:00 +11°C° 0 mm 1 mps 696 mmHg 22%
23:00 +11°C° 0 mm 1 mps 696 mmHg 21%

17 August, Monday

Time Temperature Precipitation Wind Pressure Humidity
00:00 +11°C° 0 mm 1 mps 696 mmHg 21%
01:00 +10°C° 0 mm 1 mps 696 mmHg 21%
02:00 +10°C° 0 mm 1 mps 695 mmHg 22%
03:00 +9°C° 0 mm 1 mps 695 mmHg 23%
04:00 +9°C° 0 mm 1 mps 695 mmHg 25%
05:00 +9°C° 0 mm 1 mps 695 mmHg 27%
06:00 +9°C° 0 mm 1 mps 695 mmHg 29%
07:00 +9°C° 0 mm 1 mps 695 mmHg 32%
08:00 +12°C° 0 mm 1 mps 695 mmHg 28%
09:00 +14°C° 0 mm 1 mps 695 mmHg 24%
10:00 +16°C° 0 mm 1 mps 695 mmHg 20%
11:00 +18°C° 0 mm 1 mps 694 mmHg 18%
12:00 +18°C° 0 mm 2 mps 694 mmHg 17%
13:00 +19°C° 0 mm 2 mps 693 mmHg 15%
14:00 +20°C° 0 mm 2 mps 693 mmHg 15%
15:00 +21°C° 0 mm 1 mps 692 mmHg 14%
16:00 +21°C° 0 mm 1 mps 692 mmHg 14%
17:00 +19°C° 0 mm 1 mps 692 mmHg 17%
18:00 +16°C° 0 mm 1 mps 692 mmHg 20%
19:00 +14°C° 0 mm 1 mps 692 mmHg 23%
20:00 +14°C° 0 mm 1 mps 692 mmHg 22%
21:00 +14°C° 0 mm 1 mps 692 mmHg 22%
22:00 +13°C° 0 mm 1 mps 692 mmHg 22%
23:00 +13°C° 0 mm 2 mps 691 mmHg 23%

18 August, Tuesday

Time Temperature Precipitation Wind Pressure Humidity
00:00 +12°C° 0 mm 2 mps 691 mmHg 24%
01:00 +12°C° 0 mm 2 mps 691 mmHg 24%
02:00 +12°C° 0 mm 2 mps 691 mmHg 23%
03:00 +10°C° 0 mm 2 mps 691 mmHg 22%
04:00 +10°C° 0 mm 3 mps 691 mmHg 22%
05:00 +10°C° 0 mm 3 mps 691 mmHg 26%
06:00 +8°C° 0 mm 4 mps 692 mmHg 30%
07:00 +7°C° 0 mm 4 mps 692 mmHg 35%
08:00 +8°C° 0 mm 5 mps 692 mmHg 35%
09:00 +9°C° 0 mm 7 mps 693 mmHg 35%
10:00 +10°C° 0 mm 8 mps 693 mmHg 36%
11:00 +11°C° 0 mm 7 mps 693 mmHg 36%
12:00 +11°C° 0 mm 6 mps 693 mmHg 36%
13:00 +12°C° 0 mm 5 mps 693 mmHg 36%
14:00 +10°C° 0 mm 5 mps 693 mmHg 40%
15:00 +9°C° 0 mm 6 mps 694 mmHg 44%
16:00 +8°C° 0 mm 6 mps 694 mmHg 48%
17:00 +7°C° 0.2 mm 6 mps 695 mmHg 52%
18:00 +4°C° 0.2 mm 6 mps 696 mmHg 57%
19:00 +3°C° 0.2 mm 6 mps 697 mmHg 61%
20:00 +2°C° 0.7 mm 5 mps 698 mmHg 66%
21:00 +1°C° 0.7 mm 5 mps 699 mmHg 70%
22:00 0°C° 0.7 mm 4 mps 700 mmHg 75%
23:00 0°C° 0.5 mm 4 mps 701 mmHg 77%

19 August, Wednesday

Time Temperature Precipitation Wind Pressure Humidity
00:00 0°C° 0.5 mm 4 mps 701 mmHg 79%
01:00 +1°C° 0.5 mm 3 mps 702 mmHg 81%
02:00 0°C° 0.3 mm 4 mps 702 mmHg 77%
03:00 -1°C° 0.3 mm 4 mps 703 mmHg 73%
04:00 -1°C° 0.3 mm 4 mps 703 mmHg 69%
05:00 -1°C° 0.1 mm 4 mps 704 mmHg 68%
06:00 -1°C° 0.1 mm 4 mps 704 mmHg 66%
07:00 -1°C° 0.1 mm 4 mps 705 mmHg 65%
08:00 +1°C° 0 mm 3 mps 705 mmHg 58%
09:00 +2°C° 0 mm 3 mps 705 mmHg 51%
10:00 +3°C° 0 mm 2 mps 706 mmHg 45%
11:00 +4°C° 0 mm 2 mps 705 mmHg 43%
12:00 +4°C° 0 mm 2 mps 705 mmHg 42%
13:00 +6°C° 0 mm 1 mps 704 mmHg 40%
14:00 +6°C° 0 mm 1 mps 704 mmHg 39%
15:00 +6°C° 0 mm 1 mps 705 mmHg 38%
16:00 +6°C° 0 mm 1 mps 705 mmHg 37%
17:00 +6°C° 0 mm 1 mps 705 mmHg 40%
18:00 +4°C° 0 mm 2 mps 706 mmHg 42%
19:00 +3°C° 0 mm 2 mps 706 mmHg 44%
20:00 +2°C° 0 mm 2 mps 707 mmHg 45%
21:00 +2°C° 0 mm 2 mps 707 mmHg 47%
22:00 +3°C° 0 mm 1 mps 707 mmHg 48%
23:00 +2°C° 0 mm 1 mps 707 mmHg 49%
Show more